Weather History for KSVH - January, 2014

Change the Weather History Date:

Monday, January 6, 2014

  Actual Average (KHKY) Record (KHKY)
Temperature  
Mean Temperature 25 °F -  
Max Temperature 41 °F 46 °F 72 °F (1955)
Min Temperature 8 °F 30 °F 8 °F (2014)
Degree Days  
Heating Degree Days 40    
Moisture  
Dew Point 19 °F    
Average Humidity 65    
Maximum Humidity 100    
Minimum Humidity 37    
Precipitation  
Precipitation 0.05 in - - ()
Sea Level Pressure  
Sea Level Pressure 29.88 in    
Wind  
Wind Speed 7 mph (WNW)    
Max Wind Speed 21 mph    
Max Gust Speed 30 mph    
Visibility 9 miles    
Events Rain    
Averages and records for this station are not official NWS values.
T = Trace of Precipitation, MM = Missing Value Source: NWS Daily Summary

Daily Weather History Graph

Daily Weather History Graph

Search for Another Location

Airport or City:

Trip Planner

Search our weather history database for the weather conditions in past years. The results will help you decide how hot, cold, wet, or windy it might be!

Date:

Astronomy

Jan. 06, 2014 Rise Set
Actual Time 7:34 AM EST 5:25 PM EST
Civil Twilight 7:06 AM EST 5:53 PM EST
Nautical Twilight 6:34 AM EST 6:25 PM EST
Astronomical Twilight 6:03 AM EST 6:56 PM EST
Moon 11:01 AM EST (1/6) 11:43 PM EST (1/6)
Length of Visible Light 10h 47m
Length of Day
9h 51m
Waxing Crescent, 34% of the Moon is Illuminated
Jan 6
Waxing Crescent
Jan 7
First Quarter
Jan 15
Full
Jan 24
Last Quarter
Jan 30
New

Hourly Weather History & Observations

Time (EST) Temp. Windchill Dew Point Humidity Pressure Visibility Wind Dir Wind Speed Gust Speed Precip Events Conditions
12:15 AM 39.2 °F - 39.0 °F 99% 29.73 in 5.0 mi Calm Calm - 0.01 in Rain Rain
12:35 AM 38.8 °F - 38.8 °F 100% 29.72 in 7.0 mi Calm Calm - 0.01 in   Overcast
12:55 AM 38.7 °F - 38.7 °F 100% 29.70 in 4.0 mi Calm Calm - 0.01 in   Overcast
1:15 AM 38.7 °F - 38.7 °F 100% 29.69 in 4.0 mi Calm Calm - N/A   Drizzle
1:35 AM 38.7 °F - 38.7 °F 100% 29.68 in 2.0 mi Calm Calm - N/A   Light Drizzle
1:55 AM 38.7 °F - 38.7 °F 100% 29.68 in 1.8 mi Calm Calm - N/A   Drizzle
2:15 AM 38.8 °F 36.5 °F 38.8 °F 100% 29.68 in 1.5 mi SSW 3.5 mph - 0.01 in   Heavy Drizzle
2:35 AM 39.2 °F 37.0 °F 39.2 °F 100% 29.67 in 2.0 mi South 3.5 mph - 0.01 in   Heavy Drizzle
2:55 AM 39.7 °F 36.5 °F 39.6 °F 99% 29.67 in 2.0 mi SSW 4.6 mph - 0.01 in   Drizzle
3:35 AM 40.1 °F 38.0 °F 40.1 °F 100% 29.66 in 5.0 mi SW 3.5 mph - 0.02 in Rain Rain
3:55 AM 40.6 °F 36.0 °F 40.5 °F 99% 29.66 in 7.0 mi SSW 6.9 mph - 0.03 in Rain Rain
4:15 AM 41.2 °F 36.6 °F 41.0 °F 99% 29.65 in 10.0 mi SW 6.9 mph - N/A   Overcast
4:35 AM 41.4 °F 39.4 °F 41.0 °F 99% 29.66 in 10.0 mi WSW 3.5 mph - N/A   Overcast
4:55 AM 41.2 °F 37.3 °F 41.0 °F 99% 29.67 in 10.0 mi West 5.8 mph - N/A   Overcast
5:15 AM 41.2 °F 38.2 °F 40.6 °F 98% 29.67 in 10.0 mi West 4.6 mph - N/A   Overcast
5:35 AM 41.2 °F 38.2 °F 40.6 °F 98% 29.68 in 10.0 mi WSW 4.6 mph - N/A   Overcast
5:55 AM 41.0 °F 38.0 °F 40.5 °F 98% 29.67 in 7.0 mi West 4.6 mph - N/A   Drizzle
6:15 AM 40.6 °F 38.6 °F 40.1 °F 98% 29.67 in 7.0 mi West 3.5 mph - N/A   Drizzle
6:35 AM 40.5 °F - 40.1 °F 99% 29.68 in 5.0 mi Calm Calm - N/A Rain Light Rain
6:55 AM 40.3 °F 38.2 °F 39.9 °F 99% 29.69 in 5.0 mi West 3.5 mph - N/A   Overcast
7:15 AM 39.7 °F 37.6 °F 39.4 °F 99% 29.70 in 5.0 mi WNW 3.5 mph - N/A   Overcast
7:35 AM 39.4 °F 36.1 °F 39.2 °F 99% 29.72 in 5.0 mi WNW 4.6 mph - N/A   Overcast
7:55 AM 36.7 °F 29.4 °F 32.0 °F 83% 29.74 in 10.0 mi WNW 10.4 mph 16.1 mph N/A   Scattered Clouds
8:15 AM 36.0 °F 28.5 °F 30.4 °F 80% 29.76 in 10.0 mi NW 10.4 mph 16.1 mph N/A   Clear
8:35 AM 35.8 °F 27.8 °F 28.4 °F 75% 29.78 in 10.0 mi NW 11.5 mph 21.9 mph N/A   Clear
8:55 AM 36.5 °F 28.2 °F 28.0 °F 71% 29.79 in 10.0 mi NW 12.7 mph 16.1 mph N/A   Clear
9:15 AM 36.5 °F 27.8 °F 27.3 °F 69% 29.81 in 10.0 mi WNW 13.8 mph 20.7 mph N/A   Clear
9:35 AM 36.7 °F 28.9 °F 27.0 °F 68% 29.83 in 10.0 mi NW 11.5 mph - N/A   Clear
9:55 AM 35.4 °F 26.8 °F 24.6 °F 65% 29.84 in 10.0 mi NW 12.7 mph 23.0 mph N/A   Clear
10:15 AM 35.6 °F 26.2 °F 24.3 °F 63% 29.84 in 10.0 mi NW 15.0 mph 19.6 mph N/A   Clear
10:35 AM 35.1 °F 26.4 °F 22.3 °F 60% 29.85 in 10.0 mi WNW 12.7 mph 21.9 mph N/A   Clear
10:55 AM 35.1 °F 25.2 °F 21.6 °F 58% 29.86 in 10.0 mi WNW 16.1 mph 23.0 mph N/A   Clear
11:15 AM 35.2 °F 27.1 °F 21.6 °F 58% 29.86 in 10.0 mi WNW 11.5 mph 23.0 mph N/A   Clear
11:35 AM 35.1 °F 26.4 °F 21.2 °F 57% 29.86 in 10.0 mi WNW 12.7 mph - N/A   Clear
11:55 AM 37.2 °F 28.7 °F 22.5 °F 55% 29.85 in 10.0 mi WNW 13.8 mph 18.4 mph N/A   Clear
12:15 PM 36.5 °F 28.2 °F 19.4 °F 50% 29.85 in 10.0 mi NW 12.7 mph 17.3 mph N/A   Clear
12:35 PM 37.0 °F 30.4 °F 20.1 °F 50% 29.84 in 10.0 mi WNW 9.2 mph 20.7 mph N/A   Clear
12:55 PM 38.1 °F 30.7 °F 21.6 °F 51% 29.84 in 10.0 mi WNW 11.5 mph 18.4 mph N/A   Clear
1:15 PM 37.8 °F 30.2 °F 20.7 °F 50% 29.84 in 10.0 mi West 11.5 mph 18.4 mph N/A   Clear
1:35 PM 37.0 °F 26.7 °F 15.8 °F 42% 29.85 in 10.0 mi West 19.6 mph 26.5 mph N/A   Clear
1:55 PM 36.5 °F 26.3 °F 14.5 °F 41% 29.86 in 10.0 mi West 18.4 mph 29.9 mph N/A   Clear
2:15 PM 37.8 °F 28.3 °F 20.1 °F 49% 29.86 in 10.0 mi West 17.3 mph 24.2 mph N/A   Clear
2:35 PM 35.6 °F 25.9 °F 15.4 °F 44% 29.89 in 10.0 mi WNW 16.1 mph 25.3 mph N/A   Scattered Clouds
2:55 PM 35.1 °F 26.9 °F 15.1 °F 44% 29.89 in 10.0 mi WNW 11.5 mph 19.6 mph N/A   Scattered Clouds
3:15 PM 34.0 °F 23.8 °F 13.3 °F 43% 29.90 in 10.0 mi WNW 16.1 mph 24.2 mph N/A   Clear
3:35 PM 33.8 °F 23.5 °F 13.3 °F 43% 29.91 in 10.0 mi WNW 16.1 mph 24.2 mph N/A   Clear
3:55 PM 32.0 °F 20.5 °F 10.2 °F 40% 29.93 in 10.0 mi NW 18.4 mph 23.0 mph N/A   Clear
4:15 PM 31.3 °F 21.1 °F 9.5 °F 40% 29.94 in 10.0 mi WNW 13.8 mph 23.0 mph N/A   Clear
4:35 PM 30.2 °F 18.9 °F 8.2 °F 40% 29.94 in 10.0 mi WNW 16.1 mph 23.0 mph N/A   Clear
4:55 PM 28.4 °F 15.1 °F 5.4 °F 38% 29.95 in 10.0 mi WNW 20.7 mph 26.5 mph N/A   Clear
5:15 PM 26.2 °F 12.2 °F 3.6 °F 38% 29.96 in 10.0 mi WNW 20.7 mph 26.5 mph N/A   Clear
5:35 PM 24.6 °F 10.9 °F 3.0 °F 40% 29.99 in 10.0 mi WNW 18.4 mph 24.2 mph N/A   Clear
5:55 PM 22.1 °F 8.9 °F 0.7 °F 39% 30.01 in 10.0 mi WNW 15.0 mph 23.0 mph N/A   Clear
6:15 PM 20.7 °F 7.1 °F -1.8 °F 37% 30.04 in 10.0 mi WNW 15.0 mph 25.3 mph N/A   Clear
6:35 PM 18.5 °F 3.8 °F -2.6 °F 40% 30.06 in 10.0 mi NW 16.1 mph 26.5 mph N/A   Clear
6:55 PM 17.2 °F 4.5 °F -2.6 °F 42% 30.08 in 10.0 mi WNW 11.5 mph 20.7 mph N/A   Clear
7:15 PM 16.3 °F 1.6 °F -5.1 °F 39% 30.09 in 10.0 mi WNW 15.0 mph 23.0 mph N/A   Clear
7:35 PM 15.4 °F -0.1 °F -6.2 °F 38% 30.11 in 10.0 mi NW 16.1 mph 23.0 mph N/A   Clear
7:55 PM 14.4 °F 0.9 °F -5.3 °F 42% 30.13 in 10.0 mi NW 11.5 mph 18.4 mph N/A   Clear
8:15 PM 13.8 °F 0.2 °F -6.0 °F 41% 30.15 in 10.0 mi NW 11.5 mph 21.9 mph N/A   Clear
8:35 PM 13.1 °F -0.7 °F -6.2 °F 42% 30.16 in 10.0 mi NW 11.5 mph 20.7 mph N/A   Clear
8:55 PM 12.7 °F -2.5 °F -5.8 °F 43% 30.17 in 10.0 mi NW 13.8 mph 18.4 mph N/A   Clear
9:15 PM 12.2 °F -2.5 °F -7.1 °F 42% 30.18 in 10.0 mi WNW 12.7 mph 20.7 mph N/A   Clear
9:35 PM 11.8 °F -3.0 °F -7.6 °F 42% 30.19 in 10.0 mi WNW 12.7 mph 18.4 mph N/A   Clear
9:55 PM 10.9 °F -0.8 °F -7.6 °F 43% 30.20 in 10.0 mi NW 8.1 mph 19.6 mph N/A   Clear
10:15 PM 10.4 °F 0.8 °F -7.6 °F 44% 30.20 in 10.0 mi WNW 5.8 mph - N/A   Clear
10:35 PM 10.2 °F -0.6 °F -7.2 °F 45% 30.21 in 10.0 mi NW 6.9 mph - N/A   Clear
10:55 PM 9.9 °F -1.1 °F -7.2 °F 46% 30.20 in 10.0 mi NW 6.9 mph - N/A   Clear
11:15 PM 9.5 °F -2.6 °F -6.0 °F 50% 30.20 in 10.0 mi NW 8.1 mph - N/A   Clear
11:35 PM 9.3 °F -3.8 °F -8.1 °F 45% 30.20 in 10.0 mi NW 9.2 mph 16.1 mph N/A   Clear
11:55 PM 8.6 °F -2.6 °F -8.3 °F 46% 30.22 in 10.0 mi NW 6.9 mph - N/A   Clear